Welcome to the New NWS' Forecast!
Most changes are behind the scenes, but click here for differences you might notice.
Latest weather observations around

EW3298 Indio (E3298)

Using English Units (Switch to International System of Units)
Date/ Time (PDT) Wind (mph) Vis. (mi) Weather Sky Cond. Temp (°F) Rel. Humidity Wind Chill (°F) Heat Index (°F) Pressure Precip. (in)
Air Dwpt 6 hour Altimeter (inHg) Sea level (inHg) 1 hr 3 hr 6 hr
Max Min
Sep 23 07:22 WNW 8   Clear   67 48     51%     29.73        
Sep 23 07:08 NW 7   Clear   67 49     52%     29.73        
Sep 23 06:52 NW 8   Clear   67 49     52%     29.72        
Sep 23 06:38 W 7   Clear   67 49     53%     29.72        
Sep 23 06:22 WNW 5   Clear   67 49     53%     29.72        
Sep 23 06:07 WNW 7   Clear   67 49     52%     29.71        
Sep 23 05:52 WNW 4   Clear   67 49     52%     29.71        
Sep 23 05:37 WNW 7   Clear   67 49     52%     29.7        
Sep 23 05:22 WNW 5   Clear   67 49     52%     29.7        
Sep 23 05:07 W 6   Clear   67 49     52%     29.7        
Sep 23 04:52 WNW 7   Clear   67 48     51%     29.7        
Sep 23 04:37 NW 7   Clear   67 48     51%     29.7        
Sep 23 04:22 NW 8   Clear   68 49     51%     29.7        
Sep 23 04:07 WNW 11   Clear   68 50     52%     29.7        
Sep 23 03:52 WNW 8   Clear   68 49     51%     29.7        
Sep 23 03:37 NW 11   Clear   68 49     50%     29.7        
Sep 23 03:22 WNW 7   Clear   68 49     51%     29.7        
Sep 23 03:07 WNW 6   Clear   68 50     52%     29.7        
Sep 23 02:52 W 9   Clear   68 49     51%     29.7        
Sep 23 02:37 WNW 9   Clear   68 49     51%     29.7        
Sep 23 02:22 WNW 8   Clear   68 49     50%     29.7        
Sep 23 02:07 NW 8   Clear   68 49     50%     29.7        
Sep 23 01:52 W 6   Clear   69 50     50%     29.7        
Sep 23 01:37 WNW 8   Clear   69 50     50%     29.7        
Sep 23 01:22 WNW 9   Clear   69 50     50%     29.7        
Sep 23 01:07 WNW 9   Clear   69 50     50%     29.7        
Sep 23 00:51 WNW 7   Clear   69 49     49%     29.7        
Sep 23 00:36 NW 9   Clear   69 49     49%     29.69        
Sep 23 00:22 NW 7   Clear   69 48     48%     29.7        
Sep 23 00:06 WNW 8   Clear   70 49     48%     29.7        
Sep 22 23:51 NW 8   Clear   70 49     47%     29.7        
Sep 22 23:36 NW 8   Clear   70 48     46%     29.7        
Sep 22 23:22 NW 8   Clear   71 49     45%   70 29.69        
Sep 22 23:06 NW 5   Clear   71 49     45%   70 29.69        
Sep 22 22:51 WNW 8   Clear   71 48     44%   70 29.69        
Sep 22 22:36 NW 5   Clear   72 49     44%   71 29.69        
Sep 22 22:21 WNW 8   Clear   72 48     43%   71 29.69        
Sep 22 22:06 NW 10   Clear   73 49     43%   72 29.69        
Sep 22 21:51 WNW 9   Clear   73 49     42%   72 29.69        
Sep 22 21:36 WNW 8   Clear   74 49     41%   73 29.69        
Sep 22 21:21 WNW 7   Clear   74 47     38%   73 29.69        
Sep 22 21:06 NW 6   Clear   75 47     37%   74 29.69        
Sep 22 20:51 NW 3   Clear   75 45     34%   74 29.68        
Sep 22 20:36 WNW 3   Clear   76 43     31%   75 29.68        
Sep 22 20:21 NW 1   Clear   76 41     28%   75 29.68        
Sep 22 20:06 WNW 5   Clear   77 40     27%   76 29.67        
Sep 22 19:51 NW 9   Clear   77 40     27%   76 29.67        
Sep 22 19:36 NW 7   Clear   78 40     26%   77 29.67        
Sep 22 19:21 WNW 4   Clear   78 38     24%   77 29.66        
Sep 22 19:06 NW 2   Clear   79 38     23%   78 29.66        
Sep 22 18:51 WNW 4   Clear   79 37     22%   78 29.66        
Sep 22 18:36 NW 6   Clear   80 37     21%   79 29.66        
Sep 22 18:21 NW 2   Clear   81 36     20%   80 29.66        
Sep 22 18:06 NW 2   Clear   82 36     19%   80 29.66        
Sep 22 17:51 WNW 2   Clear   83 35     18%   80 29.66        
Sep 22 17:36 NW 2   Clear   83 34     17%   80 29.66        
Sep 22 17:21 WNW 3   Clear   84 36     18%   81 29.67        
Sep 22 17:06 NW 3   Clear   84 34     17%   81 29.66        
Sep 22 16:51 Calm   Clear   84 34     17%   81 29.67        
Sep 22 16:36 WNW 1   Clear   84 34     17%   81 29.67        
Sep 22 16:21 WNW 3   Clear   84 34     17%   81 29.67        
Sep 22 16:07 NW 1   Clear   84 34     17%   81 29.68        
Sep 22 15:51 NW 6   Clear   83 31     15%   80 29.68        
Sep 22 15:36 WNW 1   Clear   84 31     15%   81 29.68        
Sep 22 15:21 NW 5   Clear   84 34     17%   81 29.69        
Sep 22 15:06 WNW 3   Clear   84 33     16%   81 29.69        
Sep 22 14:51 NW 2   Clear   83 35     18%   80 29.7        
Sep 22 14:36 WNW 1   Clear   83 31     15%   80 29.7        
Sep 22 14:21 NW 3   Clear   83 29     14%   80 29.71        
Sep 22 14:06 NW 1   Clear   83 36     19%   81 29.71        
Sep 22 13:51 Calm   Clear   82 33     17%   80 29.72        
Sep 22 13:36 Calm   Clear   82 34     18%   80 29.72        
Sep 22 13:21 Calm   Clear   81 35     19%   80 29.73        
Sep 22 13:06 Calm   Clear   81 36     20%   80 29.73        
Sep 22 12:51 Calm   Clear   80 37     21%   79 29.74        
Sep 22 12:36 Calm   Clear   80 38     22%   79 29.75        
Sep 22 12:21 WNW 3   Clear   79 37     22%   78 29.75        
Sep 22 12:05 W 3   Clear   79 39     24%   78 29.76        
Sep 22 11:51 W 5   Clear   78 38     24%   77 29.77        
Sep 22 11:36 W 5   Clear   78 37     23%   77 29.77        
Sep 22 11:20 WNW 6   Clear   77 41     28%   76 29.78        
Sep 22 11:05 W 3   Clear   76 42     30%   75 29.78        
Sep 22 10:50 WNW 6   Clear   75 43     32%   74 29.78        
Sep 22 10:35 W 6   Clear   74 43     33%   73 29.79        
Sep 22 10:20 NW 8   Clear   74 44     34%   73 29.79        
Sep 22 10:05 W 7   Clear   73 45     37%   72 29.8        
Sep 22 09:52 WNW 7   Clear   72 45     38%   71 29.79        
Sep 22 09:36 NW 9   Clear   72 45     38%   71 29.79        
Sep 22 09:20 WNW 11   Clear   71 45     40%   70 29.79        
Sep 22 09:05 W 10   Clear   70 45     41%     29.79        
Sep 22 08:50 NW 11   Clear   69 46     43%     29.79        
Sep 22 08:35 W 10   Clear   68 46     45%     29.79        
Sep 22 08:20 WNW 8   Clear   68 46     46%     29.79        
Sep 22 08:05 WNW 11   Clear   67 46     47%     29.78        
Sep 22 07:50 WNW 7   Clear   66 45     47%     29.78        
Sep 22 07:35 WNW 6   Clear   65 45     49%     29.78        
Sep 22 07:20 WNW 8   Clear   65 46     50%     29.78        
Sep 22 07:05 WNW 7   Clear   64 45     50%     29.77        
Sep 22 06:50 WNW 6   Clear   65 45     48%     29.77        
Sep 22 06:35 WNW 9   Clear   65 44     47%     29.75        
Sep 22 06:20 NNW 8   Clear   65 45     48%     29.75        
Sep 22 06:05 WNW 8   Clear   65 44     47%     29.75        
Sep 22 05:50 NW 10   Clear   65 45     48%     29.75        
Sep 22 05:35 WNW 7   Clear   65 45     49%     29.74        
Sep 22 05:20 WNW 10   Clear   65 46     50%     29.73        
Sep 22 05:05 WNW 9   Clear   65 45     49%     29.73        
Sep 22 04:50 WNW 9   Clear   66 45     47%     29.73        
Sep 22 04:35 WNW 7   Clear   65 45     48%     29.73        
Sep 22 04:20 WNW 9   Clear   65 45     48%     29.72        
Sep 22 04:04 NW 13   Clear   66 46     48%     29.72        
Sep 22 03:49 WNW 9   Clear   66 45     47%     29.72        
Sep 22 03:34 NW 10   Clear   66 45     47%     29.72        
Sep 22 03:19 NW 7   Clear   66 45     47%     29.71        
Sep 22 03:04 WNW 8   Clear   66 46     48%     29.72        
Sep 22 02:49 NNW 8   Clear   66 45     47%     29.72        
Sep 22 02:36 NW 8   Clear   67 46     47%     29.72        
Sep 22 02:19 WNW 11   Clear   67 47     48%     29.72        
Sep 22 02:04 WNW 8   Clear   67 47     48%     29.72        
Sep 22 01:49 NW 10   Clear   67 47     48%     29.72        
Sep 22 01:34 WNW 14   Clear   67 47     48%     29.72        
Sep 22 01:19 WNW 8   Clear   67 47     49%     29.72        
Sep 22 01:04 WNW 10   Clear   67 47     48%     29.72        
Sep 22 00:49 WNW 10   Clear   68 47     47%     29.71        
Sep 22 00:34 NNW 9   Clear   68 47     47%     29.71        
Sep 22 00:19 W 7   Clear   68 47     47%     29.71        
Sep 22 00:04 NW 6   Clear   68 47     47%     29.71        
Sep 21 23:49 NW 9   Clear   69 48     48%     29.71        
Sep 21 23:34 NW 10   Clear   69 48     48%     29.7        
Sep 21 23:19 WNW 10   Clear   69 48     48%     29.7        
Sep 21 23:04 NW 11   Clear   70 49     48%     29.7        
Sep 21 22:49 NW 9   Clear   70 49     47%     29.7        
Sep 21 22:34 NNW 8   Clear   71 50     47%   70 29.7        
Sep 21 22:19 NNW 11   Clear   71 49     45%   70 29.7        
Sep 21 22:04 NW 9   Clear   72 49     45%   71 29.7        
Sep 21 21:49 NW 10   Clear   73 50     44%   72 29.69        
Sep 21 21:34 NW 9   Clear   73 50     44%   72 29.69        
Sep 21 21:19 NW 12   Clear   74 50     43%   73 29.68        
Sep 21 21:03 NW 12   Clear   74 49     41%   73 29.68        
Sep 21 20:48 NW 14   Clear   74 49     41%   73 29.68        
Sep 21 20:34 N 10   Clear   75 49     40%   74 29.68        
Sep 21 20:18 NNW 7   Clear   76 50     40%   75 29.68        
Sep 21 20:04 NW 9   Clear   76 48     37%   75 29.67        
Sep 21 19:48 NW 7   Clear   77 49     38%   76 29.67        
Sep 21 19:33 NNW 7   Clear   77 49     37%   76 29.66        
Sep 21 19:21 NNW 9   Clear   78 49     36%   77 29.66        
Sep 21 19:04 NNW 7   Clear   79 48     34%   78 29.66        
Sep 21 18:48 Calm   Clear   79 49     35%   78 29.65        
Sep 21 18:34 Calm   Clear   80 49     34%   79 29.65        
Sep 21 18:18 Calm   Clear   81 48     32%   80 29.65        
Sep 21 18:04 WSW 2   Clear   83 48     30%   81 29.65        
Sep 21 17:48 WNW 1   Clear   84 47     28%   82 29.65        
Sep 21 17:33 W 2   Clear   84 49     30%   82 29.65        
Sep 21 17:18 WSW 2   Clear   84 47     28%   82 29.65        
Sep 21 17:03 W 5   Clear   84 48     29%   82 29.65        
Sep 21 16:48 W 7   Clear   84 49     30%   82 29.65        
Sep 21 16:34 WSW 10   Clear   85 50     30%   83 29.65        
Sep 21 16:18 WSW 15   Clear   85 50     30%   83 29.65        
Sep 21 16:03 WSW 9   Clear   86 50     29%   84 29.65        
Sep 21 15:48 WSW 9   Clear   86 51     30%   84 29.65        
Sep 21 15:33 S 4   Clear   86 50     29%   84 29.65        
Sep 21 15:18 WSW 6   Clear   87 50     28%   84 29.65        
Sep 21 15:03 WSW 5   Clear   86 51     30%   84 29.66        
Sep 21 14:48 WSW 2   Clear   87 53     31%   85 29.66        
Sep 21 14:33 SW 3   Clear   87 52     30%   85 29.66        
Sep 21 14:18 WSW 5   Clear   86 50     29%   84 29.67        
Sep 21 14:03 WSW 2   Clear   87 51     29%   85 29.67        
Sep 21 13:48 NNE 11   Clear   86 51     30%   84 29.66        
Sep 21 13:33 WNW 7   Clear   86 50     29%   84 29.67        
Sep 21 13:18 NNW 10   Clear   85 50     30%   83 29.68        
Sep 21 13:05 NNW 13   Clear   85 51     31%   83 29.68        
Sep 21 12:48 NE 8   Clear   85 51     31%   83 29.68        
Sep 21 12:33 NW 10   Clear   85 52     32%   83 29.7        
Sep 21 12:18 NNW 9   Clear   85 51     31%   83 29.7        
Sep 21 12:04 WNW 10   Clear   85 53     33%   83 29.7        
Sep 21 11:48 W 10   Clear   84 52     33%   82 29.7        
Sep 21 11:33 WNW 6   Clear   83 52     35%   82 29.7        
Sep 21 11:18 NNW 10   Clear   82 52     36%   81 29.71        
Sep 21 11:03 NW 9   Clear   82 53     37%   81 29.71        
Sep 21 10:48 NW 8   Clear   82 53     37%   81 29.71        
Sep 21 10:33 NW 10   Clear   81 53     38%   80 29.71        
Sep 21 10:18 W 7   Clear   81 54     39%   81 29.72        
Sep 21 10:03 NNW 8   Clear   80 54     41%   80 29.72        
Sep 21 09:48 NNW 8   Clear   79 54     42%   79 29.72        
Sep 21 09:33 WNW 3   Clear   79 55     44%   79 29.72        
Sep 21 09:18 WNW 3   Clear   78 55     45%   78 29.72        
Sep 21 09:03 NW 8   Clear   77 55     46%   77 29.71        
Sep 21 08:48 WNW 4   Clear   76 55     48%   76 29.71        
Sep 21 08:33 NNW 9   Clear   75 55     49%   75 29.71        
Sep 21 08:19 NW 10   Clear   75 55     50%   75 29.71        
Sep 21 08:03 NW 5   Clear   74 55     52%   74 29.7        
Sep 21 07:47 NNW 6   Clear   73 55     53%   72 29.7        
Sep 21 07:32 WNW 8   Clear   73 55     54%   73 29.7        
Sep 21 07:18 NW 7   Clear   73 56     55%   73 29.69        
Sep 21 07:03 NNW 7   Clear   72 55     55%   71 29.69        
Sep 21 06:47 NW 9   Clear   72 55     55%   71 29.69        
Sep 21 06:33 NNW 6   Clear   72 55     55%   71 29.69        
Sep 21 06:18 NW 8   Clear   73 56     55%   73 29.68        
Sep 21 06:02 NNW 10   Clear   73 56     55%   73 29.68        
Sep 21 05:47 NNW 7   Clear   73 56     55%   73 29.68        
Sep 21 05:32 WNW 6   Clear   73 56     55%   73 29.68        
Sep 21 05:17 NW 7   Clear   73 56     55%   73 29.68        
Sep 21 05:02 WNW 8   Clear   73 56     55%   73 29.67        
Sep 21 04:48 W 10   Clear   73 56     55%   73 29.67        
Sep 21 04:32 NNW 9   Clear   73 55     54%   73 29.67        
Sep 21 04:17 WNW 7   Clear   74 56     53%   74 29.67        
Sep 21 04:02 NNW 10   Clear   74 55     52%   74 29.67        
Sep 21 03:47 NW 8   Clear   74 55     52%   74 29.67        
Sep 21 03:32 WNW 8   Clear   74 55     51%   73 29.67        
Sep 21 03:17 NW 3   Clear   74 55     52%   74 29.67        
Sep 21 03:02 NW 6   Clear   74 55     52%   74 29.67        
Sep 21 02:47 WNW 4   Clear   74 55     51%   73 29.67        
Sep 21 02:32 WNW 6   Clear   74 55     51%   73 29.67        
Sep 21 02:17 WNW 6   Clear   75 55     50%   75 29.67        
Sep 21 02:02 WNW 6   Clear   75 55     50%   75 29.68        
Sep 21 01:47 WNW 7   Clear   75 55     50%   75 29.68        
Sep 21 01:32 WNW 4   Clear   75 56     51%   75 29.68        
Sep 21 01:17 NW 3   Clear   75 56     52%   75 29.68        
Sep 21 01:02 WNW 7   Clear   75 56     52%   75 29.68        
Sep 21 00:47 NW 6   Clear   76 57     51%   76 29.68        
Sep 21 00:32 WNW 3   Clear   76 57     52%   76 29.68        
Sep 21 00:17 NW 6   Clear   76 57     51%   76 29.68        
Sep 21 00:02 WNW 6   Clear   77 57     50%   77 29.68        
Sep 20 23:47 NW 7   Clear   77 57     50%   77 29.68        
Sep 20 23:32 WNW 2   Clear   77 56     49%   77 29.68        
Sep 20 23:17 WNW 5   Clear   78 57     49%   78 29.68        
Sep 20 23:02 WNW 8   Clear   78 57     48%   78 29.68        
Sep 20 22:47 NW 9   Clear   78 56     47%   78 29.67        
Sep 20 22:35 NW 8   Clear   79 56     46%   79 29.67        
Sep 20 22:17 NW 3   Clear   79 56     45%   79 29.67        
Sep 20 22:02 NW 8   Clear   80 56     44%   80 29.67        
Sep 20 21:47 NW 4   Clear   80 55     42%   80 29.67        
Sep 20 21:32 NW 3   Clear   81 56     42%   81 29.67        
Sep 20 21:17 NW 7   Clear   81 55     41%   81 29.67        
Sep 20 21:02 WNW 5   Clear   82 56     41%   82 29.66        
Sep 20 20:47 NW 6   Clear   82 55     40%   81 29.66        
Sep 20 20:32 NW 2   Clear   82 55     40%   81 29.66        
Sep 20 20:18 WNW 5   Clear   83 55     39%   82 29.66        
Sep 20 20:01 NW 8   Clear   83 55     38%   82 29.66        
Sep 20 19:47 NW 8   Clear   84 55     37%   83 29.65        
Sep 20 19:31 NW 4   Clear   84 54     36%   83 29.65        
Sep 20 19:17 WNW 8   Clear   85 53     34%   83 29.65        
Sep 20 19:01 NW 5   Clear   86 54     33%   84 29.65        
Sep 20 18:46 WNW 9   Clear   86 53     32%   84 29.65        
Sep 20 18:31 NW 8   Clear   87 53     31%   85 29.65        
Sep 20 18:17 NNW 8   Clear   88 53     30%   86 29.65        
Sep 20 18:01 NNW 8   Clear   89 53     29%   87 29.65        
Sep 20 17:47 NNW 6   Clear   90 52     28%   88 29.65        
Sep 20 17:31 NW 5   Clear   91 51     26%   88 29.65        
Sep 20 17:16 NNW 6   Clear   91 51     26%   88 29.65        
Sep 20 17:02 NW 2   Clear   92 52     26%   89 29.65        
Sep 20 16:46 NW 5   Clear   93 52     25%   90 29.65        
Sep 20 16:31 WNW 2   Clear   93 52     25%   90 29.65        
Sep 20 16:16 Calm   Clear   92 51     25%   89 29.65        
Sep 20 16:01 Calm   Clear   92 51     25%   89 29.66        
Sep 20 15:46 WSW 2   Clear   92 51     25%   89 29.66        
Sep 20 15:31 Calm   Clear   91 51     26%   88 29.66        
Sep 20 15:18 Calm   Clear   92 52     26%   89 29.67        
Sep 20 15:01 WNW 5   Clear   92 51     25%   89 29.67        
Sep 20 14:46 W 1   Clear   91 50     25%   88 29.68        
Sep 20 14:31 Calm   Clear   91 50     25%   88 29.69        
Sep 20 14:16 Calm   Clear   90 50     26%   87 29.69        
Sep 20 14:01 Calm   Clear   90 50     26%   87 29.7        
Sep 20 13:46 Calm   Clear   90 51     27%   87 29.71        
Sep 20 13:31 Calm   Clear   89 51     27%   86 29.72        
Sep 20 13:17 WSW 1   Clear   89 51     27%   86 29.72        
Sep 20 13:01 WSW 2   Clear   88 50     27%   85 29.73        
Sep 20 12:46 NW 6   Clear   88 52     29%   86 29.74        
Sep 20 12:31 WNW 1   Clear   88 52     29%   86 29.74        
Sep 20 12:16 WNW 6   Clear   87 52     30%   85 29.75        
Sep 20 12:01 W 4   Clear   87 53     31%   85 29.75        
Sep 20 11:46 WNW 5   Clear   86 53     32%   84 29.75        
Sep 20 11:31 WNW 5   Clear   86 53     32%   84 29.76        
Sep 20 11:16 WNW 4   Clear   85 53     34%   83 29.76        
Sep 20 11:00 WNW 4   Clear   85 54     35%   83 29.77        
Sep 20 10:46 WNW 7   Clear   84 54     36%   83 29.77        
Sep 20 10:31 WNW 6   Clear   83 55     38%   82 29.77        
Sep 20 10:16 WNW 7   Clear   82 55     39%   81 29.78        
Sep 20 10:00 WNW 3   Clear   81 54     40%   81 29.78        
Sep 20 09:45 W 9   Clear   80 55     42%   80 29.77        
Sep 20 09:30 WNW 7   Clear   80 55     43%   80 29.77        
Sep 20 09:15 WNW 4   Clear   79 56     45%   79 29.78        
Sep 20 09:00 W 7   Clear   78 56     46%   78 29.78        
Sep 20 08:45 NW 7   Clear   77 56     48%   77 29.77        
Sep 20 08:30 WNW 5   Clear   76 55     49%   76 29.77        
Sep 20 08:15 WNW 4   Clear   75 56     52%   75 29.76        
Sep 20 08:03 NW 8   Clear   75 57     53%   75 29.76        
Sep 20 07:45 WNW 4   Clear   74 56     54%   74 29.76        
Jun 12 04:49 WNW 5   Clear   66 46     48%     29.83        
Jun 11 22:31 NNW 12   Clear   69 47     45%     29.79        
Jun 11 21:16 NW 10   Clear   72 47     41%   71 29.75        
Jun 11 19:01 NW 9   Clear   81 47     30%   80 29.69        
Jun 11 17:00 NW 9   Clear   86 43     22%   83 29.66        
Jun 11 16:30 NW 9   Clear   87 45     23%   84 29.67        
Jun 11 16:16 NNW 8   Clear   87 46     24%   84 29.67        
Jun 11 15:16 NW 11   Clear   86 44     23%   83 29.68        
Jun 11 12:45 NW 11   Clear   83 47     28%   81 29.72        
Jun 11 11:30 NW 7   Clear   81 47     31%   80 29.72        
Jun 11 10:30 WNW 9   Clear   79 47     33%   78 29.72        
Jun 11 05:14 WNW 2   Clear   67 47     48%     29.66        
Jun 11 04:59 NW 6   Clear   68 48     48%     29.65        
Jun 11 03:44 WNW 6   Clear   69 48     48%     29.64        
Jun 11 00:13 NW 9   Clear   73 50     44%   72 29.63        
Jun 10 22:13 NNW 13   Clear   75 50     42%   74 29.63        
Jun 10 21:43 NW 11   Clear   77 51     40%   76 29.62        
Jun 10 21:13 NNW 8   Clear   78 50     38%   77 29.62        
Jun 10 19:13 NW 11   Clear   85 52     32%   83 29.6        
Jun 10 18:28 NW 8   Clear   88 51     28%   85 29.59        
Jun 10 17:43 NW 16   Clear   90 47     23%   87 29.59        
Jun 10 16:43 WNW 5   Clear   94 41     16%   90 29.59        
Jun 10 14:43 WNW 2   Clear   94 41     16%   90 29.63        
Jun 10 10:14 W 4   Clear   85 47     27%   83 29.7        
Jun 10 09:12 WNW 7   Clear   83 47     28%   81 29.7        
Jun 09 21:56 NW 8   Clear   82 52     36%   81 29.67        
Jun 09 17:11 NW 2   Clear   99 51     20%   96 29.62        
Jun 09 14:25 Calm   Clear   99 40     13%   94 29.68        
Jun 09 13:55 WNW 4   Clear   99 40     13%   94 29.68        
Jun 09 07:39 W 2   Clear   79 50     37%   78 29.75        
Jun 09 02:54 WNW 9   Clear   80 42     26%   79 29.73        
Jun 09 00:39 NW 3   Clear   83 32     16%   80 29.73        
Jun 08 15:23 W 5   Clear   101 41     13%   96 29.72        
Jun 08 14:38 Calm   Clear   99 45     16%   95 29.74        
Jun 08 13:23 NW 1   Clear   95 45     18%   91 29.78        
Jun 08 12:07 Calm   Clear   91 51     26%   88 29.83        
Jun 08 08:07 Calm   Clear   77 55     47%   77 29.85        
Jun 08 07:52 Calm   Clear   76 55     48%   76 29.84        
Jun 08 06:52 Calm   Clear   74 56     54%   74 29.81        
Jun 08 05:36 WNW 2   Clear   73 55     53%   72 29.79        
Jun 08 03:51 W 10   Clear   75 55     49%   75 29.77        
Jun 08 02:36 WNW 9   Clear   77 54     45%   77 29.76        
Jun 07 23:51 WNW 7   Clear   82 54     38%   81 29.75        
Jun 07 22:51 WNW 6   Clear   84 56     38%   83 29.75        
Jun 07 20:06 Calm   Clear   95 43     17%   91 29.7        
Jun 07 15:50 SE 3   Clear   97 42     15%   93 29.73        
Jun 07 12:20 Calm   Clear   91 49     24%   88 29.81        
Jun 07 12:05 ESE 1   Clear   91 50     25%   88 29.82        
Jun 07 09:19 Calm   Clear   83 58     42%   83 29.83        
Notice The following observation data may not be complete
Jun 07 09:04 Calm   Clear     58      %     29.83        
Jun 06 07:32 Calm   Clear   81 55     41%   81 29.8        
Jun 06 07:17 Calm   Clear   81 55     41%   81 29.8        
Jun 06 07:02 Calm   Clear   80 55     42%   80 29.79        
Jun 05 23:46 Calm   Clear   87 55     34%   85 29.73        
Jun 05 22:46 Calm   Clear   90 53     29%   88 29.72        
Jun 05 20:46 Calm   Clear   97 54     24%   95 29.67        
Jun 05 20:31 Calm   Clear   98 55     24%   96 29.66        
Jun 05 15:46 S 7   Clear   102 46     15%   98 29.66        
Jun 05 15:01 Calm   Clear   103 46     15%   99 29.67        
Jun 05 14:46 SW 5   Clear   103 46     15%   99 29.67